Location: Arbon
(43.0005°N, 0.7472°E)
Time: 10:26:35
(UTC+00:00)

Vanguard 2 Rocket - Pass Details

Date: 26 November 2020
Orbit: 554 x 3325 km, 32.9° (Epoch: 21 January)

Event Time Altitude Azimuth Distance (km) Brightness Sun altitude
Rises 13:53:36 0° 276° (W) 6,471 11.6 19.4°
Reaches altitude 10° 13:59:09 10° 267° (W) 4,999 11.3 18.8°
Maximum altitude 14:09:36 29° 216° (SW) 2,731 11.7 17.7°
Drops below altitude 10° 14:16:22 10° 159° (SSE) 3,151 10.2 17.0°
Sets 14:19:01 0° 147° (SSE) 3,802 10.4 16.7°
